This is the latest recevied weather packets stored in our database for station/object SA6BET-2. If no packets are shown the sender has not sent any weather packets the latest 10 day(s).
| Time | Temp. | Humidity | Pressure | Rain* | Wind** | Luminosity | Snow |
|---|---|---|---|---|---|---|---|
| 1787773050 | 25.56° C | 100% | 1013.6 hPa | - | - | - | - |
| 1787772150 | 25.56° C | 100% | 1013.3 hPa | - | - | - | - |
| 1787771249 | 25.56° C | 100% | 1012.7 hPa | - | - | - | - |
| 1787770349 | 25.56° C | 100% | 1012.7 hPa | - | - | - | - |
| 1787769449 | 26.11° C | 100% | 1012.4 hPa | - | - | - | - |
| 1787768549 | 26.11° C | 100% | 1012.4 hPa | - | - | - | - |
| 1787767649 | 26.67° C | 100% | 1012.4 hPa | - | - | - | - |
| 1787766749 | 27.22° C | 100% | 1012.4 hPa | - | - | - | - |
| 1787765848 | 27.22° C | 100% | 1012.1 hPa | - | - | - | - |
| 1787764948 | 27.78° C | 100% | 1012.2 hPa | - | - | - | - |
| 1787764048 | 28.89° C | 100% | 1012.2 hPa | - | - | - | - |
| 1787763148 | 29.44° C | 100% | 1012.3 hPa | - | - | - | - |
| 1787762248 | 29.44° C | 100% | 1012.5 hPa | - | - | - | - |
| 1787761348 | 30.56° C | 100% | 1012.7 hPa | - | - | - | - |
| 1787760447 | 30.56° C | 100% | 1012.7 hPa | - | - | - | - |
| 1787759547 | 30° C | 100% | 1012.6 hPa | - | - | - | - |
| 1787758647 | 30° C | 100% | 1012.9 hPa | - | - | - | - |
| 1787757747 | 30° C | 100% | 1012.9 hPa | - | - | - | - |
| 1787756847 | 30° C | 100% | 1012.8 hPa | - | - | - | - |
| 1787755946 | 30.56° C | 100% | 1012.6 hPa | - | - | - | - |
| 1787755046 | 32.78° C | 100% | 1012.7 hPa | - | - | - | - |
| 1787754146 | 33.33° C | 100% | 1012.8 hPa | - | - | - | - |
| 1787753246 | 33.33° C | 100% | 1012.9 hPa | - | - | - | - |
| 1787752346 | 34.44° C | 100% | 1012.9 hPa | - | - | - | - |
| 1787751446 | 34.44° C | 100% | 1013.1 hPa | - | - | - | - |
* Rain since midnight (hover to see other rain measurements)
** Current wind speed in m/s (hover to see current wind gust speed)